カタログに戻る

STARLINK-5766

運用中通信VLEO
NORAD 56025·PAYLOAD·🇺🇸 United States

打ち上げ Mar 24, 2023 から Cape Canaveral Space Force Station

Loading…

次のパス (今後24時間)

TLE

最新Source: CelesTrak SupGP

元期: Sep 14, 2026, 21:05 UTC

1 56025C 23042AR  26257.87895833  .00055890  00000+0  20245-2 0  2570
2 56025  43.0008  57.1614 0001852 278.9080 132.9754 15.27546993    12

AllMySatでSTARLINK-5766をリアルタイム追跡

Download on the App Store